EHI
0 0 0 0 0 0 0 0 0 0 0 0 0 0 0 0 0 0 0 1 5 9 8 7 9 11 11 12 12 14 16 15 12 9 6 5 3 1 0 0 0 0 0 0 1 2 3 3 2
0 0 0 0 0 0 0 0 0 0 0 0 0 0 0 0 0 0 0 2 6 10 9 9 13 15 13 11 11 12 14 13 10 7 6 5 4 2 1 1 0 0 0 0 0 1 2 2 2
0 0 0 0 0 0 0 0 0 0 0 0 0 0 0 0 0 0 1 4 9 11 10 11 17 19 15 12 11 12 11 9 6 3 3 4 4 3 3 3 1 0 0 0 0 0 1 1 1
0 0 0 0 0 0 0 0 0 0 0 0 0 0 0 0 0 2 5 9 11 11 8 11 18 20 16 13 13 13 10 6 3 2 2 3 3 4 4 3 1 0 0 0 0 0 1 1 0
0 0 0 0 0 0 0 0 0 0 0 0 0 0 0 0 1 4 8 11 12 10 8 11 17 19 15 11 11 11 10 7 4 3 3 3 3 4 4 2 0 0 0 0 0 0 1 1 1
0 0 0 0 0 0 0 0 0 1 1 0 0 0 0 0 2 6 9 10 10 10 10 12 15 17 13 8 7 9 9 8 6 6 5 4 3 3 2 1 1 1 1 1 1 1 1 1 1
0 0 0 0 0 0 0 0 0 1 1 0 1 1 1 1 5 9 10 8 9 10 12 13 14 14 11 7 5 7 9 9 7 6 5 4 3 2 1 1 3 3 2 2 2 3 3 3 2
0 0 0 0 0 0 0 0 0 1 1 0 1 1 2 6 12 15 13 11 10 11 12 12 11 11 9 5 4 5 6 7 5 3 2 2 2 2 1 1 3 3 3 3 4 4 4 4 3
0 0 0 0 0 0 0 0 0 0 0 0 1 3 8 16 20 20 17 13 12 12 12 10 10 9 7 5 5 4 4 4 3 1 0 1 1 1 0 1 2 2 3 3 4 4 3 3 2
0 0 0 0 0 0 0 0 0 0 0 1 3 8 17 24 25 21 16 13 11 11 10 8 8 8 7 6 6 5 4 3 1 0 0 0 0 0 0 0 1 1 1 2 2 1 1 1 1
0 0 0 0 0 0 0 0 0 0 0 2 6 13 22 26 24 18 14 12 11 9 8 7 7 7 6 6 6 5 4 3 1 0 0 0 0 0 0 0 0 0 0 0 0 0 0 1 1
0 0 0 0 0 0 0 0 0 0 0 2 8 16 22 23 20 16 14 12 11 9 7 6 6 6 6 5 5 5 4 3 2 1 0 0 0 0 0 0 0 0 0 0 0 0 1 2 2
0 0 0 0 0 0 0 0 0 0 0 3 9 16 20 19 16 14 13 13 12 11 8 7 6 6 6 5 4 4 3 3 3 2 1 1 0 0 0 0 0 0 0 0 0 1 1 2 3
0 0 0 0 0 0 0 0 0 0 2 5 10 14 16 16 14 13 13 13 14 13 11 8 7 6 7 6 4 3 3 3 3 3 3 2 1 0 0 0 0 0 0 0 1 1 2 2 2
0 0 0 0 0 0 0 0 0 2 5 8 12 14 16 17 17 17 16 16 17 17 14 11 9 8 7 6 4 3 3 3 3 3 3 3 1 0 0 0 0 0 1 1 2 2 2 2 1
0 0 0 0 0 0 0 0 2 5 9 12 15 17 18 19 20 20 21 21 21 20 18 16 14 11 8 5 4 3 3 3 3 3 3 3 2 2 2 1 0 1 1 2 2 2 2 1 1
0 0 0 0 0 0 0 1 3 7 10 13 16 19 20 18 17 18 22 24 23 21 20 18 16 13 10 6 4 3 3 3 3 3 3 3 3 3 3 2 1 1 1 1 1 2 2 1 1
0 0 0 0 0 0 0 1 4 7 9 10 13 17 18 16 14 15 19 22 21 20 19 17 13 11 9 7 5 4 3 3 3 3 4 4 3 3 3 3 2 1 1 2 2 2 1 1 1
0 0 0 0 0 0 0 1 4 6 7 6 8 12 14 13 13 14 17 18 19 18 17 16 13 10 11 10 8 6 3 2 3 4 5 5 4 3 3 3 2 2 2 3 3 3 2 1 0
0 0 0 0 0 0 0 1 2 3 3 3 4 7 9 10 12 14 16 16 16 15 14 15 13 12 13 15 12 6 3 1 2 4 6 6 4 3 3 4 3 3 3 4 4 4 4 3 2
0 0 0 0 0 0 0 0 0 1 1 1 2 4 7 10 12 13 14 15 14 13 12 12 12 12 16 18 14 9 6 4 4 5 6 6 5 4 5 5 4 4 4 5 6 6 6 5 4
0 0 0 0 0 0 0 0 0 0 0 1 1 4 7 10 11 12 13 13 13 11 9 10 11 13 17 18 17 15 12 9 7 7 7 7 6 6 7 6 5 4 5 6 6 6 6 5 4
0 0 0 0 0 0 0 0 0 0 0 1 2 5 7 9 10 11 13 13 12 10 8 8 11 14 14 15 18 19 16 12 10 8 8 7 6 7 8 6 4 4 5 5 4 4 4 4 4
0 0 0 0 0 0 0 0 0 0 0 1 3 5 7 9 11 13 14 14 13 11 9 9 11 12 12 14 17 19 18 14 10 8 7 6 5 6 7 5 3 3 3 4 3 3 3 3 3
0 0 0 0 0 0 0 0 0 0 0 1 2 4 6 8 11 14 14 14 13 11 10 11 11 11 12 15 18 19 18 16 12 7 6 5 5 4 3 3 3 2 2 3 3 3 3 3 2
0 0 0 0 0 0 0 0 0 0 0 0 1 2 3 6 10 13 14 14 12 11 12 13 12 11 12 16 18 18 17 16 12 8 6 6 5 3 2 2 3 3 3 3 3 3 3 3 3
0 0 0 0 0 0 0 0 0 0 0 0 0 1 2 4 7 11 14 14 12 12 13 14 12 11 13 15 17 17 16 14 12 9 7 6 5 4 2 2 4 4 4 5 4 2 2 3 3
0 0 0 0 0 0 0 0 0 0 1 0 0 1 3 4 7 10 13 13 12 12 12 12 11 11 13 15 17 17 15 13 11 10 8 7 6 5 3 3 4 5 6 5 3 2 1 2 2
0 0 0 0 0 0 0 0 0 0 0 0 1 2 4 5 6 8 10 12 12 13 12 11 10 11 13 15 16 14 12 11 11 10 8 7 5 4 3 3 4 6 6 5 3 2 1 1 1
0 0 0 0 0 0 0 0 0 0 0 0 1 2 4 6 6 6 9 11 12 13 13 12 10 10 12 14 14 11 9 9 10 9 8 6 5 4 3 3 4 6 6 5 3 2 1 0 0
Wind_Speed
3 3 3 2 5 6 2 2 1 1 2 2 4 5 5 3 2 2 1 6 7 6 5 6 7 7 7 6 6 6 6 6 6 7 6 6 6 6 5 5 5 5 6 6 5 5 5 4 4
2 3 2 4 5 3 3 2 1 1 2 3 5 5 5 3 2 4 3 5 7 7 5 5 7 7 7 6 6 6 6 6 6 6 6 6 6 5 5 5 5 5 5 5 5 5 4 4 4
3 2 3 5 4 3 1 1 0 1 2 2 3 4 4 3 3 4 4 8 7 6 4 5 9 8 7 6 5 5 5 5 5 5 5 5 5 5 5 5 5 5 5 5 5 4 4 3 3
2 3 5 5 2 2 3 2 1 2 2 4 4 4 3 2 4 5 8 9 8 5 4 5 8 8 7 6 5 5 4 4 4 4 4 4 4 4 4 4 4 4 4 4 4 3 3 3 3
3 4 6 4 2 2 2 1 1 2 1 3 3 4 2 3 5 8 9 9 8 5 3 4 7 7 7 6 5 5 4 4 3 4 3 3 3 3 4 4 3 3 3 3 3 3 3 3 3
4 5 5 1 3 2 1 1 2 2 2 2 4 4 1 1 5 8 8 6 5 5 3 3 6 7 6 5 4 4 3 3 3 3 3 3 3 3 3 3 3 3 3 3 3 3 4 4 3
4 4 3 1 1 2 1 1 3 3 3 2 4 4 1 2 4 7 7 6 4 4 3 2 2 4 5 4 4 3 3 3 3 3 3 3 3 3 3 3 3 3 3 3 3 4 4 5 4
4 5 2 0 1 2 1 1 1 3 2 3 4 6 5 5 7 8 7 5 4 3 2 2 1 2 2 2 3 3 3 3 3 2 2 2 2 2 2 2 2 3 3 3 3 3 4 5 5
3 5 1 3 3 2 0 1 1 1 4 2 2 3 5 12 11 9 6 4 3 3 2 1 2 1 1 1 2 2 2 2 2 1 1 1 1 2 2 2 2 3 2 2 3 3 4 4 4
4 3 4 4 3 2 1 2 2 3 2 1 2 4 10 13 12 10 8 8 7 6 4 2 2 2 2 2 1 1 1 1 1 1 1 1 1 1 2 4 3 3 3 3 3 3 4 4 3
3 4 3 3 3 2 2 1 2 5 3 5 7 10 13 12 10 10 9 8 8 6 5 4 3 3 3 1 1 1 1 1 1 1 1 1 1 1 2 2 3 3 3 2 3 3 2 2 2
1 3 3 3 1 1 3 3 2 4 5 4 8 13 13 13 12 11 10 8 6 5 5 4 4 3 3 2 1 1 1 1 1 0 1 1 1 1 1 1 2 2 1 1 1 1 2 3 2
1 2 2 2 2 1 2 2 2 2 1 4 8 11 12 11 9 7 6 6 6 6 5 5 4 4 3 2 1 1 1 1 1 1 1 1 1 0 1 1 1 1 1 1 1 1 2 2 2
1 1 3 2 1 0 3 0 2 2 2 7 9 9 10 11 9 7 6 7 7 7 6 5 5 4 4 3 2 1 1 1 1 0 0 1 1 1 0 1 1 1 1 1 1 1 1 1 1
1 2 4 3 2 1 4 2 2 2 4 7 7 7 8 7 8 9 9 8 7 7 5 5 5 4 4 3 3 2 1 1 1 0 1 1 1 1 1 0 1 1 1 1 1 2 1 1 2
3 4 2 4 3 2 4 3 4 2 6 6 6 6 6 6 7 6 6 6 6 5 5 5 5 5 4 3 2 1 1 1 1 0 0 0 0 1 1 1 0 1 1 1 1 1 1 1 2
4 1 1 4 2 2 2 4 3 2 5 5 5 5 5 4 4 4 5 6 6 6 6 6 5 5 4 3 2 1 1 1 0 0 0 0 0 1 1 1 0 1 1 1 1 2 1 1 2
3 2 1 3 2 3 1 3 4 2 4 5 5 4 4 4 5 4 4 5 5 5 5 5 4 4 4 2 2 1 1 0 0 0 0 1 1 1 1 1 1 2 2 2 2 2 2 1 1
4 3 2 3 1 1 1 3 4 2 3 4 4 4 5 5 3 2 3 4 4 4 4 5 4 4 4 3 2 1 1 1 0 0 1 1 1 1 1 1 2 2 2 2 2 2 2 2 2
3 2 2 3 2 1 1 3 3 2 4 6 6 6 6 4 2 3 3 3 4 4 4 4 4 4 4 3 3 2 1 1 1 0 1 1 1 1 2 2 2 2 2 3 2 2 2 2 2
2 5 4 2 3 3 2 5 4 2 1 2 3 5 5 6 6 5 5 4 4 4 5 4 4 5 4 4 3 2 2 1 1 1 0 0 0 1 2 2 2 2 2 2 1 1 2 1 2
4 6 5 3 2 2 1 2 6 3 3 3 5 5 6 5 5 5 5 5 5 5 4 3 4 4 4 4 4 5 3 2 2 1 0 1 1 1 2 2 2 2 2 2 1 2 2 2 1
6 2 3 3 3 0 1 1 8 2 4 6 6 6 6 6 6 5 6 6 5 5 5 4 4 3 4 4 5 5 3 2 1 1 1 1 1 1 2 2 2 2 2 2 2 2 2 2 1
4 6 6 5 5 1 4 4 7 5 7 5 4 6 6 5 5 4 4 4 4 4 4 4 4 3 4 4 4 4 4 3 2 1 1 1 1 1 1 2 2 2 2 2 2 2 2 2 2
5 6 4 3 2 5 2 3 9 7 6 5 4 5 5 5 5 5 5 5 5 5 5 5 5 3 3 4 4 4 4 3 3 2 2 1 0 0 0 1 2 2 2 2 2 2 2 2 2
5 9 8 6 5 4 0 5 8 5 3 2 3 4 4 4 4 5 6 6 5 5 5 6 6 4 3 4 3 3 3 2 2 2 2 2 1 1 1 1 2 2 2 2 2 2 1 1 1
6 4 6 7 3 1 4 6 8 3 2 1 1 2 3 4 4 5 5 6 6 6 5 6 6 5 4 4 3 2 2 2 2 2 2 2 1 1 1 1 1 1 2 2 2 2 1 1 1
6 9 6 6 6 3 3 4 5 5 4 2 2 3 3 2 3 4 5 5 5 4 4 4 5 5 4 4 3 3 2 2 2 2 2 2 1 1 2 1 1 1 2 2 2 2 1 1 0
4 4 5 5 5 6 3 7 6 7 5 5 5 3 3 4 4 4 4 4 4 4 4 4 4 4 4 3 3 3 2 2 2 2 2 2 1 1 1 1 1 1 1 2 2 1 1 1 0
4 7 8 6 4 4 4 8 4 4 5 4 4 3 2 3 3 3 4 4 4 4 4 4 3 4 4 4 3 3 2 2 2 1 1 2 2 1 1 2 2 2 2 2 2 2 1 1 1
Wind_Direction
157 131 126 94 57 51 30 305 285 349 48 55 96 101 110 105 141 162 158 142 140 145 158 164 161 151 140 129 121 115 108 105 104 103 100 95 93 97 99 95 92 92 96 100 103 103 98 95 103
140 142 95 63 75 58 322 302 343 45 143 127 85 82 83 76 81 115 138 153 144 146 152 163 163 154 144 135 129 123 118 111 104 103 102 96 91 93 98 96 94 92 92 95 98 99 96 90 91
165 153 84 69 85 150 244 289 202 93 129 99 80 65 91 118 133 155 170 149 139 145 153 171 165 158 150 143 137 132 125 120 109 104 103 97 92 90 97 101 100 97 95 92 92 91 92 89 83
111 53 53 66 66 224 219 239 153 121 64 57 94 75 66 82 154 156 143 144 141 150 158 176 168 162 156 151 145 143 134 128 120 112 104 99 96 95 100 105 105 99 95 92 91 86 81 75 72
63 75 59 44 321 276 242 207 149 106 78 69 95 97 53 17 101 124 137 145 148 154 160 177 173 167 162 158 151 147 139 134 127 118 108 97 92 94 96 97 101 102 92 82 81 78 69 61 63
58 67 76 44 310 305 273 177 116 92 87 90 102 109 91 90 119 135 138 141 148 153 157 173 177 169 165 165 160 152 145 137 126 116 108 97 92 93 93 93 89 85 74 67 64 60 56 51 49
96 88 119 179 290 314 237 112 119 121 127 151 129 113 133 153 142 132 128 125 131 140 146 165 170 165 166 168 165 162 148 138 131 116 105 99 93 90 84 79 81 78 72 63 60 52 44 39 36
119 97 85 240 189 262 280 62 114 132 145 131 125 146 189 184 137 121 114 114 123 131 144 157 157 143 149 170 172 150 141 135 132 125 113 102 85 69 65 62 64 67 61 57 54 44 38 33 28
89 75 154 225 196 227 259 66 56 85 107 109 139 170 167 138 132 125 121 124 142 163 170 162 156 142 141 158 166 153 151 135 127 124 112 89 27 11 15 14 31 33 31 38 47 41 37 33 27
88 125 223 223 204 195 197 162 160 93 90 87 70 86 121 137 145 150 158 166 175 186 190 182 171 158 149 168 148 124 130 93 95 63 36 51 46 17 21 10 8 8 13 18 27 27 27 27 23
137 188 237 251 227 192 186 189 156 131 190 205 177 155 145 153 159 168 176 179 185 186 187 186 183 170 163 166 141 128 89 83 90 75 62 61 47 20 19 11 359 356 1 12 19 21 23 30 28
169 245 233 270 266 187 177 153 142 182 224 204 172 159 155 165 175 181 183 184 177 179 192 187 180 171 172 163 157 147 129 120 108 63 75 83 62 24 7 4 352 1 4 13 19 23 21 27 25
202 272 284 267 302 215 135 152 172 234 259 125 139 153 162 171 182 187 184 180 175 183 190 185 176 175 173 163 173 159 158 164 157 123 104 119 114 41 359 354 2 359 2 10 6 19 22 19 18
231 270 307 317 344 125 132 140 126 249 123 125 143 163 173 175 179 178 178 185 186 189 190 179 179 179 169 169 170 170 167 161 129 141 177 159 156 152 102 10 359 356 353 10 46 35 22 6 10
357 11 356 356 14 34 98 15 233 208 130 136 153 166 178 181 179 187 188 187 188 186 178 177 181 173 171 174 177 169 161 145 157 210 211 183 176 174 152 100 2 332 353 43 63 44 40 16 19
44 50 359 313 8 18 106 249 272 167 142 154 167 168 176 189 191 191 188 184 181 167 164 177 181 173 173 173 176 164 150 154 190 217 196 218 192 158 133 113 339 338 37 57 70 56 50 26 21
33 75 279 310 5 30 120 245 277 166 155 170 183 181 177 190 198 193 188 182 172 164 164 173 173 170 176 172 158 153 141 157 169 91 89 106 110 127 137 122 50 52 65 56 53 58 62 46 18
208 192 240 271 309 31 12 264 280 202 173 188 191 185 182 194 211 193 181 175 165 161 162 171 170 163 159 143 112 87 70 55 96 110 163 161 150 132 129 105 62 74 76 62 57 59 52 44 7
162 168 238 271 305 49 297 287 284 228 182 194 201 198 206 215 208 162 161 150 149 155 163 172 170 170 153 142 146 156 212 231 225 193 150 151 149 132 116 91 75 80 87 87 84 77 55 33 19
147 178 251 305 6 73 316 303 294 217 203 197 199 206 211 208 188 175 168 158 160 168 173 172 177 178 170 163 157 153 165 227 191 322 59 82 116 122 127 106 93 88 90 75 67 80 86 46 36
185 192 205 219 3 27 32 328 309 293 255 219 209 206 207 202 197 192 186 187 174 174 179 181 179 177 171 155 126 104 82 30 28 13 3 347 120 112 114 113 107 97 100 98 89 93 103 96 42
226 215 189 170 100 304 69 286 291 278 285 245 227 213 214 209 196 192 185 186 187 184 170 169 173 173 164 153 150 149 162 185 215 221 252 15 60 91 107 105 108 101 98 102 99 92 100 110 82
205 166 148 143 143 39 359 182 281 299 262 250 231 218 215 203 188 188 187 186 183 172 165 168 164 162 157 162 172 161 163 184 162 104 83 58 40 64 91 102 105 104 102 103 94 91 90 103 115
144 74 60 55 79 219 229 182 272 245 230 242 226 218 209 194 187 178 161 156 167 159 156 152 153 157 161 165 166 160 164 163 139 115 104 68 23 38 73 106 105 109 109 109 107 101 90 84 92
109 96 45 12 21 246 239 187 250 252 235 222 220 218 205 188 172 161 158 162 167 163 163 155 149 155 167 165 169 173 172 168 176 178 165 155 119 22 35 113 119 124 131 124 114 99 89 90 94
166 143 157 184 208 260 264 225 255 267 267 234 214 210 194 183 170 173 175 173 172 169 167 163 154 153 163 165 171 171 162 165 178 179 165 175 189 206 178 135 133 138 137 132 123 112 112 100 117
141 169 165 135 149 190 270 279 300 289 315 299 212 201 194 180 177 180 177 173 169 168 170 170 158 153 161 165 158 147 149 157 165 167 157 163 180 173 135 131 131 140 137 132 126 110 115 112 117
139 144 108 123 148 218 272 262 247 256 259 263 239 220 218 184 180 179 173 173 172 167 159 148 151 158 157 150 153 151 153 148 150 145 144 144 150 147 132 122 136 150 145 139 128 125 131 119 105
112 111 113 119 150 158 218 261 230 222 221 225 230 224 208 199 194 178 172 164 148 137 139 146 147 147 147 151 147 141 149 138 129 137 150 143 133 131 142 158 163 164 156 140 134 152 145 133 102
156 162 146 150 197 170 173 260 274 231 222 209 216 210 196 190 179 159 152 141 139 140 140 145 152 152 157 151 144 149 145 136 128 141 157 145 151 153 131 148 168 177 163 150 150 170 163 164 196